Weather in Tverdovka

Belarus     52°17′33″N   25°54′35″E
temp.,
°C
wind,
m/s
gust,
m/s
humid.,
%
clouds,
%
prec.,
mm/h
press.,
hPa
HPBL,
m
27 september, mon
mon2700:00+8ne36825 0.0 1024103
03:00+6ene35923 0.0 102581
06:00+5ene36940 0.0 1026124
09:00+7ene36835 0.0 1026226
12:00+12e45640 0.0 1026803
15:00+14ene45588 0.0 10251153
18:00+12e46700 0.0 1024224
21:00+8e410860 0.0 1026210
28 september, tue
tue2800:00+6e34874 0.0 102652
03:00+6e22860 0.0 102618
06:00+5e34933 0.0 102653
09:00+8ene368140 0.0 1027162
12:00+12e466992 0.0 1028579
15:00+14e455698 0.1 10271509
18:00+12ene3667100 0.0 1028177
21:00+10e3771100 0.0 1029189
29 september, wed
wed2900:00+10e497498 0.0 1030288
03:00+6e38935 0.0 1031144
06:00+5e49965 0.0 1031190
09:00+7e59895 0.0 1031287
12:00+11ese687287 0.0 1032650
15:00+13ese676510 0.0 1031942
18:00+12ese596873 0.0 1030421
21:00+10ese5117045 0.0 1031417
30 september, thu
thu3000:00+7se411805 0.0 1031322
03:00+6ese512811 0.0 1031308
06:00+5ese512863 0.0 1031260
09:00+7se512771 0.0 1030332
12:00+12se79600 0.0 1030718
15:00+15sse68535 0.0 10291197
18:00+13se4866100 0.0 1029232
21:00+9se41074100 0.0 1029177
1 october, fri
fri100:00+9se41171100 0.0 1030233
03:00+9sse41067100 0.0 1030248
06:00+9se4963100 0.0 1029235
09:00+8sse4965100 0.0 1030238
12:00+10sse4961100 0.0 1030346
15:00+13sse365981 0.0 1029368
18:00+12ssw2364100 0.0 102872
21:00+12se385891 0.0 1028190